| time (UTC) | temp F | wind direction | speed MPH | gust MPH | rain 1hr in | rain 24hr in | rain mn in | humidity % | barometer mb |
| 20260505053005 | 60 | 28 | 0.0 | 2.0 | 0.00 | 0.00 | 0.00 | 72 | 1009.2 |
| 20260505051005 | 60 | 156 | 2.0 | 3.0 | 0.00 | 0.00 | 0.00 | 72 | 1009.2 |
| 20260505041005 | 63 | 77 | 12.0 | 14.0 | 0.00 | 0.00 | 0.00 | 69 | 1008.6 |
| 20260505034005 | 67 | 103 | 6.0 | 12.0 | 0.00 | 0.00 | 0.00 | 56 | 1008.6 |
| 20260505033005 | 67 | 310 | 2.0 | 2.0 | 0.00 | 0.00 | 0.00 | 54 | 1007.9 |
| 20260505032005 | 68 | 89 | 1.0 | 8.0 | 0.00 | 0.00 | 0.00 | 52 | 1007.5 |
| 20260505031004 | 69 | 127 | 6.0 | 9.0 | 0.00 | 0.00 | 0.00 | 48 | 1007.1 |
| 20260505030005 | 69 | 192 | 4.0 | 10.0 | 0.00 | 0.00 | 0.00 | 48 | 1007.2 |
| 20260505025005 | 69 | 104 | 7.0 | 14.0 | 0.00 | 0.00 | 0.00 | 47 | 1007.0 |
| 20260505024004 | 70 | 101 | 6.0 | 16.0 | 0.00 | 0.00 | 0.00 | 47 | 1006.8 |
| 20260505022005 | 70 | 70 | 9.0 | 21.0 | 0.00 | 0.00 | 0.00 | 46 | 1006.8 |
| 20260505021005 | 71 | 67 | 13.0 | 23.0 | 0.00 | 0.00 | 0.00 | 45 | 1006.8 |
| 20260505020005 | 72 | 23 | 7.0 | 20.0 | 0.00 | 0.00 | 0.00 | 43 | 1006.5 |
| 20260505015005 | 72 | 69 | 7.0 | 13.0 | 0.00 | 0.00 | 0.00 | 43 | 1006.4 |
| 20260505014004 | 73 | 57 | 6.0 | 17.0 | 0.00 | 0.00 | 0.00 | 43 | 1006.4 |
| 20260505013004 | 77 | 34 | 12.0 | 23.0 | 0.00 | 0.00 | 0.00 | 36 | 1006.5 |
| 20260505012005 | 79 | 188 | 2.0 | 7.0 | 0.00 | 0.00 | 0.00 | 37 | 1006.0 |
| 20260505011005 | 79 | 155 | 4.0 | 7.0 | 0.00 | 0.00 | 0.00 | 38 | 1005.9 |
| 20260505010005 | 79 | 112 | 4.0 | 6.0 | 0.00 | 0.00 | 0.00 | 38 | 1005.9 |
| 20260505005005 | 79 | 249 | 5.0 | 9.0 | 0.00 | 0.00 | 0.00 | 34 | 1005.8 |
| 20260505003005 | 80 | 195 | 6.0 | 9.0 | 0.00 | 0.00 | 0.00 | 33 | 1005.9 |
| 20260505002005 | 81 | 138 | 2.0 | 8.0 | 0.00 | 0.00 | 0.00 | 35 | 1006.0 |
| 20260505001004 | 81 | 173 | 3.0 | 7.0 | 0.00 | 0.00 | 0.00 | 36 | 1006.0 |
| 20260505000005 | 81 | 62 | 3.0 | 7.0 | 0.00 | 0.00 | 0.00 | 33 | 1005.9 |
| 20260504234005 | 82 | 137 | 4.0 | 7.0 | 0.00 | 0.00 | 0.00 | 32 | 1006.0 |
| 20260504233004 | 82 | 112 | 1.0 | 7.0 | 0.00 | 0.00 | 0.00 | 36 | 1006.2 |
| 20260504232005 | 82 | 125 | 2.0 | 8.0 | 0.00 | 0.00 | 0.00 | 37 | 1006.2 |
| 20260504231005 | 82 | 140 | 2.0 | 12.0 | 0.00 | 0.00 | 0.00 | 34 | 1006.3 |
| 20260504230005 | 82 | 112 | 2.0 | 7.0 | 0.00 | 0.00 | 0.00 | 34 | 1006.3 |
| 20260504224004 | 81 | 356 | 4.0 | 8.0 | 0.00 | 0.00 | 0.00 | 38 | 1006.3 |
| 20260504223005 | 81 | 122 | 1.0 | 10.0 | 0.00 | 0.00 | 0.00 | 29 | 1006.5 |
| 20260504222005 | 82 | 144 | 2.0 | 17.0 | 0.00 | 0.00 | 0.00 | 33 | 1006.7 |
| 20260504221005 | 82 | 328 | 4.0 | 10.0 | 0.00 | 0.00 | 0.00 | 32 | 1006.7 |
| 20260504220006 | 82 | 181 | 6.0 | 9.0 | 0.00 | 0.00 | 0.00 | 35 | 1006.7 |
| 20260504215005 | 81 | 58 | 5.0 | 6.0 | 0.00 | 0.00 | 0.00 | 34 | 1006.9 |
| 20260504214004 | 81 | 114 | 4.0 | 10.0 | 0.00 | 0.00 | 0.00 | 36 | 1007.0 |
| 20260504213005 | 82 | 97 | 3.0 | 8.0 | 0.00 | 0.00 | 0.00 | 34 | 1007.0 |
| 20260504210005 | 81 | 266 | 3.0 | 9.0 | 0.00 | 0.00 | 0.00 | 36 | 1007.2 |
| 20260504205005 | 80 | 194 | 5.0 | 9.0 | 0.00 | 0.00 | 0.00 | 36 | 1007.3 |
| 20260504204005 | 80 | 255 | 5.0 | 7.0 | 0.00 | 0.00 | 0.00 | 35 | 1007.3 |
| 20260504203006 | 79 | 128 | 3.0 | 7.0 | 0.00 | 0.00 | 0.00 | 39 | 1007.4 |
| 20260504201005 | 78 | 105 | 3.0 | 6.0 | 0.00 | 0.00 | 0.00 | 42 | 1007.5 |
| 20260504200005 | 78 | 289 | 2.0 | 7.0 | 0.00 | 0.00 | 0.00 | 38 | 1007.5 |
| 20260504194004 | 76 | 163 | 2.0 | 6.0 | 0.00 | 0.00 | 0.00 | 44 | 1007.7 |
| 20260504193004 | 75 | 105 | 2.0 | 3.0 | 0.00 | 0.00 | 0.00 | 41 | 1007.8 |
| 20260504192006 | 74 | 126 | 2.0 | 6.0 | 0.00 | 0.00 | 0.00 | 41 | 1007.8 |
| 20260504191008 | 74 | 154 | 4.0 | 6.0 | 0.00 | 0.00 | 0.00 | 41 | 1007.9 |
| 20260504190005 | 73 | 191 | 5.0 | 8.0 | 0.00 | 0.00 | 0.00 | 43 | 1008.1 |
| 20260504185005 | 73 | 330 | 3.0 | 7.0 | 0.00 | 0.00 | 0.00 | 40 | 1008.2 |
| 20260504184004 | 72 | 179 | 2.0 | 8.0 | 0.00 | 0.00 | 0.00 | 47 | 1008.2 |
| 20260504183005 | 71 | 209 | 3.0 | 8.0 | 0.00 | 0.00 | 0.00 | 44 | 1008.4 |
| 20260504182004 | 71 | 150 | 3.0 | 7.0 | 0.00 | 0.00 | 0.00 | 46 | 1008.6 |
| 20260504181004 | 70 | 156 | 6.0 | 7.0 | 0.00 | 0.00 | 0.00 | 48 | 1008.6 |
| 20260504175005 | 68 | 120 | 2.0 | 8.0 | 0.00 | 0.00 | 0.00 | 54 | 1008.8 |
| 20260504174004 | 67 | 350 | 4.0 | 7.0 | 0.00 | 0.00 | 0.00 | 50 | 1008.9 |
| 20260504173005 | 66 | 243 | 3.0 | 8.0 | 0.00 | 0.00 | 0.00 | 54 | 1009.1 |
| 20260504172004 | 66 | 233 | 5.0 | 8.0 | 0.00 | 0.00 | 0.00 | 54 | 1009.2 |
| 20260504171004 | 66 | 237 | 4.0 | 7.0 | 0.00 | 0.00 | 0.00 | 55 | 1009.4 |
| 20260504151005 | 53 | 97 | 3.0 | 3.0 | 0.00 | 0.00 | 0.00 | 75 | 1011.1 |
| 20260504141005 | 46 | 93 | 0.0 | 0.0 | 0.00 | 0.00 | 0.00 | 87 | 1011.9 |
| 20260504082004 | 49 | 359 | 0.0 | 0.0 | 0.00 | 0.00 | 0.00 | 76 | 1011.2 |
| 20260504081004 | 50 | 359 | 0.0 | 0.0 | 0.00 | 0.00 | 0.00 | 76 | 1011.2 |